Location: DARK SKY Beskydy - Park tmavé oblohy, www.darkskybeskydy.cz
(49.4926°N, 18.5016°E)
Time: 04:11:53
(UTC+01:00)

N. Korean satellite - Pass Details

Date: 16 December 2022
Orbit: 407 x 441 km, 97.3° (Epoch: 05 February)

Event Time Altitude Azimuth Distance (km) Brightness Sun altitude
Rises 05:53:27 0° 4° (N) 2,476 10.0 -15.6°
Reaches altitude 10° 05:55:40 10° 353° (N) 1,588 8.9 -15.3°
Enters shadow 05:56:47 18° 341° (NNW) 1,191 8.2 -15.1°
Exits shadow 06:01:16 12° 232° (SW) 1,427 8.6 -14.4°
Drops below altitude 10° 06:01:35 10° 229° (SW) 1,546 8.8 -14.4°
Sets 06:03:43 0° 218° (SW) 2,398 9.9 -14.1°
